星链-30440 (STARLINK-30440 )

导读 | 豆包AI

STARLINK-30440是美国SpaceX星链互联网星座的卫星成员,于2023年9月24日发射入轨,归属美国。它是星链低轨宽带星座批量部署的卫星之一,延续星链设计,承担低轨互联网组网任务,为全球偏远区域、移动载体等提供卫星互联网接入服务,星链组网后也被美国军方用于军事通信辅助。

基本信息
目录编号:
57923
目录名称:
STARLINK-30440
国际标识:
2023-147L
轨道中心:
EARTH
卫星名称:
星链-30440
卫星全名:
星链-30440 (STARLINK-30440 )
卫星状态:
在轨 (已飞行949 天)
发射日期:
2023-09-24 UTC
国别 :
美国 (US)
星等 :
--
轨道信息
数据来源 国际轨道数据
星历时间: 2026-04-30T11:36:03+0800
13小时前
查看轨道信息
半长轴: 6861.203km
偏心率: 0.0001046
轨道倾角: 43.005°
近地点辐角 280.001°
升交点赤经 34.973°
平近点角 80.073°
近地点: 482.348km
远地点: 483.784km
周期: 94.267分钟
每日圈数: 15.275745
详细信息
固有亮度:
5
最大亮度:
0.3
卫星平台:
Starlink v2.0 mini
覆盖范围:
全球
运营商:
太空探索技术公司
运营商所在国:
美国
制造商(研发单位):
太空探索技术公司
制造商所在国:
美国
使用方式:
暂无
卫星简介
星链(Starlink)计划是由太空探索技术公司(SpaceX)提出的一个巨型低轨卫星互联网星座项目,计划在2019年至2024年间在太空搭建由约1.2万颗卫星组成的“星链”网络,其中1584颗将部署在地球上空550千米处的近地轨道,并从2020年开始工作。该卫星仍在工作。
2D轨道图
3D轨道图
轨道高度分析图
轨道倾角分析图
轨道综合分析图
查看轨道综合分析图